map of BJX home
Great Circle Mapper logo
BJX - Airport
Location
City:  León, Guanajuato, México
Near (Alt.):Silao, Guanajuato
Name:Guanajuato International Airport
Old (Alt.):Del Bajío International Airport
ICAO / IATA:MMLO / BJX

Details
Type:Airport (Aerodrome, Airfield)
Use:Public/Civil, International (customs port of entry)
Latitude:20°59'36"N (20.993464)
Longitude:101°28'51"W (-101.480846)
Datum:WGS 1984
Elevation:5956 ft (1815 m)
Runways:1
Longest:11480 × 148 ft (3499 × 45 m), paved

Time
Time Zone:UTC-6 (DST-5)
Local Time:

Weather
METAR:MMLO 221150Z 00000KT 8SM SKC 13/10 A3020 RMK SLP105 52002 910
TAF:MMLO 220508Z 2206/2306 03006KT P6SM SKC
FM221900 06010KT P6SM BKN030 BKN100 PROB40 2221/2301 5SM RA
FM230100 00000KT P6SM SCT030

Related Locations
Nearby:
Farthest:RRG: 11461 mi / 18445 km
Plaine Corail, Rodrigues Island, MU

Find:

   beyond  
but within

Other Information
Maps:
NOTAMs:
Links:
Sources:

  
flag of México   

Sectional Chart

Flight Planning
at skyvector.com

Satellite Image

Google Maps Satellite View

 

Copyright © 2004-2014 Karl L. Swartz. All rights reserved.
The Great Circle Mapper name and logo are trademarks of the Great Circle Mapper.
All other trademarks mentioned herein belong to their respective owners.
Please see credits for attibutions and further copyright information.

  Follow gcmap on Facebook Follow gcmap on Twitter

hCard Microformat

Geo Microformat